Inquirer Daily News

Weather

Get conditions and forecasts for any City, State, ZIP code or Country:  
Northeast Philadelphia, PA
on Monday, November 26, 2012

Monday
Previous Day Next Day
Daily Summary
 ActualAverage (KTTN)Record (KTTN)
Temperature
Mean Temperature °F 42°F  
Max Temperature 48°F 50°F 70°F (1946)
Min Temperature 25°F 34°F 14°F (1938)
Degree Days
Heating Degree Days 28 23  
Month to date heating degree days 485  
Since 1 July heating degree days 882  
Cooling Degree Days 0 0  
Month to date cooling degree days 0  
Year to date cooling degree days 965  
Moisture
Dew Point 22°F   
Average Humidity 57    
Maximum Humidity 81    
Minimum Humidity 35    
Precipitation
Precipitation 0.00 in 0.13 in 1.70 in (1996)
Month to date precipitation 2.78  
Year to date precipitation 42.21  
Wind
Wind Speed 4 mph   
Max Wind Speed 13 mph   
Max Gust Speed 17 mph   
Visibility 10 miles   
Events     

Key: T is trace of precipitation, MM is missing value
Source: NWS Daily Summary
Time(EST)TemperatureDew PointHumidity Pressure Visibility Wind DirectionWind SpeedGust SpeedPrecipitationEvents Conditions
12:54 AM 30.0°F 21.0°F 69% 30.01 in 10.0 miles WSW 4.6 mph - N/A   Clear
1:54 AM 28.0°F 19.9°F 72% 30.03 in 10.0 miles Calm Calm - N/A   Clear
2:54 AM 27.0°F 19.0°F 72% 30.03 in 10.0 miles Calm Calm - N/A   Clear
3:54 AM 25.0°F 19.9°F 81% 30.04 in 10.0 miles Calm Calm - N/A   Clear
4:54 AM 28.9°F 21.9°F 75% 30.05 in 10.0 miles WSW 3.5 mph - N/A   Clear
5:54 AM 32.0°F 23.0°F 69% 30.08 in 10.0 miles WSW 4.6 mph - N/A   Clear
6:54 AM 32.0°F 23.0°F 69% 30.10 in 10.0 miles SW 4.6 mph - N/A   Clear
7:54 AM 33.1°F 24.1°F 70% 30.13 in 10.0 miles WSW 4.6 mph - N/A   Clear
8:54 AM 39.9°F 23.0°F 51% 30.16 in 10.0 miles West 5.8 mph - N/A   Overcast
9:54 AM 44.1°F 25.0°F 47% 30.17 in 10.0 miles West 9.2 mph - N/A   Clear
10:54 AM 45.0°F 25.0°F 46% 30.17 in 10.0 miles West 11.5 mph - N/A   Clear
11:54 AM 46.9°F 24.1°F 41% 30.17 in 10.0 miles West 8.1 mph - N/A   Clear
12:54 PM 48.0°F 23.0°F 37% 30.15 in 10.0 miles WNW 12.7 mph 17.3 mph N/A   Clear
1:54 PM 48.9°F 21.9°F 35% 30.15 in 10.0 miles NNW 9.2 mph - N/A   Clear
2:54 PM 48.0°F 23.0°F 37% 30.17 in 10.0 miles West 11.5 mph - N/A   Clear
3:54 PM 46.9°F 23.0°F 39% 30.18 in 10.0 miles West 9.2 mph - N/A   Clear
4:54 PM 45.0°F 19.9°F 37% 30.19 in 10.0 miles NW 3.5 mph - N/A   Clear
5:54 PM 42.1°F 21.0°F 43% 30.22 in 10.0 miles West 3.5 mph - N/A   Clear
6:54 PM 41.0°F 21.9°F 47% 30.24 in 10.0 miles West 3.5 mph - N/A   Clear
7:54 PM 37.0°F 21.9°F 54% 30.25 in 10.0 miles Calm Calm - N/A   Clear
8:54 PM 33.1°F 21.9°F 64% 30.25 in 10.0 miles Calm Calm - N/A   Clear
9:54 PM 34.0°F 23.0°F 64% 30.26 in 10.0 miles Calm Calm - N/A   Clear
10:54 PM 30.9°F 23.0°F 72% 30.27 in 10.0 miles Calm Calm - N/A   Clear
11:54 PM 30.9°F 24.1°F 76% 30.27 in 10.0 miles Calm Calm - N/A   Scattered Clouds
Astronomy
Sunrise:06:58 AM (EST) Moon Rise:03:27 PM (EST)11/26
Sunset:04:36 PM (EST) Moon Set:05:06 AM (EST)11/26
Moon Phase
Nov. 26 Nov. 28 Dec. 06 Dec. 13 Dec. 20

Copyright © 2014 The Weather Underground, Inc.